Flag for Germany Weather past 2 weeks in Bad Mergentheim, Baden-Württemberg, Germany

Now
34 °F

Light snow. Fog.


Feels Like: 26 °F
Forecast: 29 / 47 °F
Wind: 9 mph from West

Location: Niederstetten

Current Time: Feb 28, 2015 at 3:41:11 AM

Latest Report: Feb 28, 2015 at 2:20 AM


Visibility: 1 mi

Pressure: 30.09 "Hg

Humidity: 100%

Dew point: 34 °F

Location of Bad MergentheimLocation

Historic Weather in Bad Mergentheim — Graph

°F

Bad Mergentheim temperature yesterday

Maximum temperature yesterday: 39 °F (at 12:20 PM)
Minimum temperature yesterday: 32 °F (at 8:20 AM)
Average temperature yesterday: 35 °F

Past Weeks' High & Low Weather Summary

 TemperatureHumidityPressure
High50 °F (Feb 20, 3:20 PM)100% (Feb 13, 2:20 AM)30.69 "Hg (Feb 13, 2:20 AM)
Low21 °F (Feb 19, 11:20 PM)46% (Feb 26, 2:20 PM)29.47 "Hg (Feb 21, 11:20 AM)
Average32 °F88%30.00 "Hg
* Reported Feb 13 2:20 AM — Feb 28 2:20 AM, Bad Mergentheim, Weather by CustomWeather, © 2015

Note: Actual official high and low records may vary slightly from our data, if they occured in-between our weather recording intervals... More about our weather records

Advertising

Bad Mergentheim weather history for previous 24 hours

 ConditionsComfort  
Time TempWeatherWind HumidityBarometerVisibility
2:20 AM
Sat, Feb 28
34 °FLight snow. Fog.9 mph100%30.09 "Hg1 mi
1:20 AM34 °FDrizzle. Fog.8 mph100%30.09 "Hg1 mi
12:20 AM34 °FLight snow. Fog.9 mph93%30.07 "Hg1 mi
11:20 PM
Fri, Feb 27
32 °FSnow. Ice fog.8 mph100%30.07 "Hg1 mi
10:20 PM34 °FLight snow. Fog.9 mph93%30.04 "Hg1 mi
9:20 PM32 °FLight snow. Fog.8 mph100%30.04 "Hg1 mi
8:20 PM32 °FSnow. Fog.8 mph100%30.01 "Hg1 mi
7:20 PM34 °FLight snow. Fog.7 mph93%30.01 "Hg1 mi
6:20 PM34 °FLight rain. Fog.8 mph93%29.98 "Hg1 mi
5:20 PM36 °FLight rain. Fog.9 mph93%29.92 "Hg3 mi
4:20 PM39 °FMostly cloudy.7 mph70%29.89 "HgN/A
3:20 PM39 °FMostly cloudy.6 mph70%29.89 "HgN/A
2:20 PM39 °FMore clouds than sun.5 mph65%29.86 "HgN/A
1:56 PM39 °FMore clouds than sun.6 mph65%29.83 "HgN/A
1:20 PM39 °FOvercast.6 mph65%29.83 "HgN/A
12:20 PM39 °FPartly sunny.1 mph61%29.83 "HgN/A
11:20 AM37 °FPartly sunny.3 mph65%29.83 "HgN/A
10:20 AM36 °FPartly sunny.2 mph75%29.80 "HgN/A
9:20 AM34 °FPartly sunny.10 mph81%29.80 "HgN/A
8:20 AM32 °FBroken clouds.10 mph80%29.77 "HgN/A
7:20 AM34 °FPartly sunny.9 mph75%29.77 "HgN/A
6:20 AM34 °FPassing clouds.10 mph75%29.77 "HgN/A
5:20 AM34 °FPassing clouds.10 mph75%29.80 "HgN/A
4:20 AM36 °FPassing clouds.12 mph70%29.80 "HgN/A
3:20 AM34 °FPassing clouds.13 mph75%29.83 "HgN/A
Weather by CustomWeather, © 2015

See weather overviewHow to use our weather pages